Hourly Data Report for October 25, 2012

All times are specified in Local Standard Time (LST). Add 1 hour to adjust for Daylight Saving Time where and when it is observed.

IQALUIT CLIMATE
NUNAVUT

63°44'50.000" N
68°32'40.000" W
33.50 m
2402592
71321
XFB

Download Data

Hourly Data (October 2012)
Hourly Data Report for October 25, 2012
Temp Definition
°C
Dew Point Temp Definition
°C
Rel Hum Definition
%
Wind Dir Definition
10's deg

Wind Spd Definition
km/h
Visibility Definition
km
Stn Press Definition
kPa
Hmdx Definition


Wind Chill Definition


Weather Definition


TIME
00:00 -1.2 -1.2 100 33 24   100.93   -7 LegendNANA
01:00 -0.8 -1.1 98 33 22   100.90   -7 LegendNANA
02:00 -0.4 -0.8 97 33 15   100.89   -5 LegendNANA
03:00 0.4 -0.4 94 31 15   100.88     LegendNANA
04:00 0.8 -0.6 90 32 15   100.88     LegendNANA
05:00 0.7 -0.5 92 32 13   100.89     LegendNANA
06:00 -0.2 -1.1 94 32 19   100.88   -5 LegendNANA
07:00 -0.7 -1.1 97 33 22   100.90   -6 LegendNANA
08:00 -0.8 -1.1 98 33 20   100.92   -6 LegendNANA
09:00 -1.0 -1.6 96 33 22   100.95   -7 LegendNANA
10:00 -1.0 -1.8 94 34 28   100.97   -8 LegendNANA
11:00 -1.0 -1.7 95 33 26   101.02   -7 LegendNANA
12:00 -1.2 -1.6 97 34 22   101.10   -7 LegendNANA
13:00 -1.8 -2.2 97 32 20   101.23   -8 LegendNANA
14:00 -2.3 -2.9 96 34 22   101.32   -8 LegendNANA
15:00 -2.3 -3.5 91 33 20   101.42   -8 LegendNANA
16:00 -2.7 -3.8 92 34 17   101.50   -8 LegendNANA
17:00 -2.5 -3.7 91 34 13   101.59   -7 LegendNANA
18:00 -3.0 -3.7 95 36 11   101.63   -7 LegendNANA
19:00 -3.1 -3.2 99 33 6   101.73   -6 LegendNANA
20:00 -3.4 -3.6 99 31 13   101.81   -8 LegendNANA
21:00 -3.5 -3.5 100 35 4   101.87   -5 LegendNANA
22:00 -3.7 -4.0 98 2 2   101.92   -5 LegendNANA
23:00 -3.7 -4.3 96   0   101.95     LegendNANA

Notes on Data Quality.

Legend

  • E = Estimated
  • M = Missing
  • NA = Not Available
  • ‡ = Partner data that is not subject to review by the National Climate Archives
Date modified: